Home > Time Zones > World Clock > Weather > India > Betul > Past weeks

Flag for India Weather past 2 weeks in Betul, Madhya Pradesh, India

Now
91 °F

Broken clouds.


Feels Like: 108 °F
Forecast: 72 / 81 °F
Wind: 7 mph from East

Location: Nagpur Sonegaon

Current Time: Aug 30, 2014 at 1:55:05 PM

Latest Report: Aug 30, 2014 at 1:10 PM


Visibility: 3 mi

Pressure: 29.59 "Hg

Humidity: 67%

Dew point: 79 °F

Location of BetulLocation

Historic Weather in Betul — Graph

°F

Betul temperature yesterday

Maximum temperature yesterday: 93 °F (at 2:40 PM)
Minimum temperature yesterday: 73 °F (at 12:40 AM)
Average temperature yesterday: 82 °F

Past Weeks' High & Low Weather Summary

 TemperatureHumidityPressure
High99 °F (Aug 19, 1:40 PM)100% (Aug 21, 4:10 PM)29.89 "Hg (Aug 21, 4:10 PM)
Low72 °F (Aug 23, 12:10 AM)38% (Aug 21, 10:40 AM)29.53 "Hg (Aug 29, 3:10 PM)
Average82 °F81%29.74 "Hg
* Reported Aug 15 1:40 PM — Aug 30 12:40 PM, Betul, Weather by CustomWeather, © 2014

Note: Actual official high and low records may vary slightly from our data, if they occured in-between our weather recording intervals... More about our weather records

Advertising

Betul weather history for previous 24 hours

 ConditionsComfort  
Time TempWeatherWind HumidityBarometerVisibility
12:40 PM
Aug 30
90 °FBroken clouds.12 mph71%29.59 "Hg3 mi
12:10 PM88 °FBroken clouds.9 mph70%29.62 "Hg3 mi
11:40 AM86 °FBroken clouds.9 mph75%29.62 "Hg3 mi
11:10 AM88 °FScattered clouds.9 mph75%29.62 "Hg3 mi
10:40 AM86 °FScattered clouds.9 mph75%29.62 "Hg3 mi
10:10 AM86 °FScattered clouds.12 mph75%29.62 "Hg3 mi
9:10 AM84 °FScattered clouds.9 mph84%29.62 "Hg3 mi
8:40 AM84 °FScattered clouds.9 mph79%29.65 "Hg3 mi
8:10 AM82 °FScattered clouds.7 mph84%29.65 "Hg3 mi
7:40 AM81 °FBroken clouds.7 mph89%29.62 "Hg3 mi
7:10 AM79 °FBroken clouds.8 mph89%29.62 "Hg3 mi
6:10 AM77 °FPartly cloudy.6 mph89%29.62 "Hg3 mi
5:40 AM77 °FPassing clouds.6 mph89%29.62 "Hg2 mi
4:10 AM77 °FPartly cloudy.6 mph89%29.59 "Hg3 mi
3:10 AM77 °FPartly cloudy.6 mph89%29.59 "Hg3 mi
2:10 AM79 °FPassing clouds.3 mph89%N/A3 mi
12:10 AM79 °FPartly cloudy.3 mph84%29.62 "Hg3 mi
11:10 PM
Aug 29
79 °FPartly cloudy.5 mph84%29.65 "Hg3 mi
10:40 PM79 °FPartly cloudy.5 mph89%29.65 "Hg3 mi
9:40 PM81 °FPassing clouds.3 mph84%29.62 "Hg3 mi
8:40 PM81 °FPassing clouds.3 mph84%29.62 "Hg3 mi
8:10 PM81 °FPassing clouds.3 mph84%29.59 "Hg3 mi
7:40 PM82 °FHaze.3 mph79%29.59 "Hg3 mi
7:10 PM84 °FHaze.3 mph74%29.59 "Hg3 mi
6:40 PM84 °FScattered clouds.5 mph74%29.59 "Hg3 mi
6:10 PM86 °FPartly sunny.7 mph70%29.56 "Hg3 mi
5:40 PM86 °FHaze.9 mph75%29.56 "Hg3 mi
5:10 PM88 °FScattered clouds.9 mph75%29.53 "Hg3 mi
4:40 PM88 °FScattered clouds.9 mph75%29.53 "Hg3 mi
4:10 PM88 °FHaze.9 mph75%29.53 "Hg3 mi
3:40 PM88 °FHaze.9 mph75%29.53 "Hg3 mi
3:10 PM90 °FScattered clouds.7 mph71%29.53 "Hg3 mi
2:40 PM93 °FScattered clouds.7 mph67%29.56 "Hg3 mi
2:10 PM91 °FBroken clouds.7 mph71%29.56 "Hg3 mi
1:40 PM91 °FBroken clouds.9 mph71%29.59 "Hg3 mi
1:10 PM90 °FBroken clouds.6 mph71%29.62 "Hg3 mi
Weather by CustomWeather, © 2014

See weather overviewHow to use our weather pages